Weather History for KCHA - August, 2013

Change the Weather History Date:

Tuesday, August 27, 2013

  Actual Average Record
Temperature  
Mean Temperature 78 °F 78 °F  
Max Temperature 90 °F 89 °F 102 °F (1936)
Min Temperature 66 °F 68 °F 53 °F (1942)
Degree Days  
Heating Degree Days 0 0  
Month to date heating degree days 0 0  
Since 1 June heating degree days 0 2  
Since 1 July heating degree days 0 0  
Cooling Degree Days 13 13  
Month to date cooling degree days 342 395  
Year to date cooling degree days 1322 1399  
Since 1 June cooling degree days 1146 1203  
Growing Degree Days 28 (Base 50)    
Moisture  
Dew Point 65 °F    
Average Humidity 69    
Maximum Humidity 93    
Minimum Humidity 44    
Precipitation  
Precipitation 0.00 in 0.10 in 1.98 in (1882)
Month to date precipitation 6.53 3.07  
Year to date precipitation 54.16 34.85  
Snow  
Snow 0.00 in 0.00 in - ()
Month to date snowfall 0.0 0.0  
Since 1 June snowfall 0.0 0.0  
Since 1 July snowfall 0.0 0.0  
Snow Depth 0.00 in    
Sea Level Pressure  
Sea Level Pressure 30.11 in    
Wind  
Wind Speed 2 mph (North)    
Max Wind Speed 12 mph    
Max Gust Speed 35 mph    
Visibility 10 miles    
Events      
T = Trace of Precipitation, MM = Missing Value Source: NWS Daily Summary

Daily Weather History Graph

Daily Weather History Graph

Search for Another Location

Airport or City:

Trip Planner

Search our weather history database for the weather conditions in past years. The results will help you decide how hot, cold, wet, or windy it might be!

Date:

Astronomy

Aug. 27, 2013 Rise Set
Actual Time 7:09 AM EDT 8:13 PM EDT
Civil Twilight 6:43 AM EDT 8:39 PM EDT
Nautical Twilight 6:12 AM EDT 9:10 PM EDT
Astronomical Twilight 5:40 AM EDT 9:42 PM EDT
Moon No Moon Rise 1:50 PM EDT (8/27)
Length of Visible Light 13h 56m
Length of Day
13h 03m
Waning Gibbous, 57% of the Moon is Illuminated
Aug 27
Waning Gibbous
Aug 28
Last Quarter
Sep 5
New
Sep 12
First Quarter
Sep 19
Full

Hourly Weather History & Observations

Time (EDT) Temp. Heat Index Dew Point Humidity Pressure Visibility Wind Dir Wind Speed Gust Speed Precip Events Conditions
12:53 AM 70.0 °F - 64.9 °F 84% 30.17 in 10.0 mi Calm Calm - N/A   Clear
1:53 AM 69.1 °F - 64.9 °F 87% 30.17 in 10.0 mi Calm Calm - N/A   Clear
2:53 AM 68.0 °F - 64.0 °F 87% 30.16 in 10.0 mi Calm Calm - N/A   Clear
3:53 AM 66.9 °F - 64.0 °F 90% 30.15 in 10.0 mi Calm Calm - N/A   Clear
4:53 AM 66.9 °F - 63.0 °F 87% 30.14 in 10.0 mi Calm Calm - N/A   Clear
5:53 AM 66.0 °F - 63.0 °F 90% 30.15 in 10.0 mi Calm Calm - N/A   Mostly Cloudy
6:53 AM 66.0 °F - 63.0 °F 90% 30.15 in 10.0 mi Calm Calm - N/A   Mostly Cloudy
7:53 AM 66.9 °F - 63.0 °F 87% 30.15 in 10.0 mi Calm Calm - N/A   Mostly Cloudy
8:53 AM 69.1 °F - 63.0 °F 81% 30.16 in 10.0 mi Calm Calm - N/A   Scattered Clouds
9:53 AM 75.0 °F - 64.0 °F 69% 30.16 in 10.0 mi Calm Calm - N/A   Mostly Cloudy
10:53 AM 79.0 °F - 64.9 °F 62% 30.16 in 10.0 mi Calm Calm - N/A   Scattered Clouds
11:53 AM 82.9 °F 85.0 °F 66.0 °F 56% 30.15 in 10.0 mi Calm Calm - N/A   Scattered Clouds
12:53 PM 84.9 °F 87.1 °F 66.0 °F 53% 30.12 in 10.0 mi Calm Calm - N/A   Scattered Clouds
1:53 PM 86.0 °F 87.3 °F 64.0 °F 48% 30.11 in 10.0 mi NNE 9.2 mph - N/A   Mostly Cloudy
2:53 PM 87.1 °F 88.3 °F 64.0 °F 46% 30.09 in 10.0 mi North 5.8 mph - N/A   Mostly Cloudy
3:53 PM 88.0 °F 89.3 °F 64.0 °F 45% 30.06 in 10.0 mi North 6.9 mph - N/A   Scattered Clouds
4:53 PM 88.0 °F 89.3 °F 64.0 °F 45% 30.05 in 10.0 mi East 5.8 mph - N/A   Scattered Clouds
5:53 PM 89.1 °F 91.0 °F 64.9 °F 45% 30.05 in 10.0 mi Variable 3.5 mph - N/A   Scattered Clouds
6:53 PM 84.9 °F 87.6 °F 66.9 °F 55% 30.05 in 10.0 mi NW 3.5 mph - N/A   Mostly Cloudy
7:53 PM 81.0 °F 84.4 °F 70.0 °F 69% 30.04 in 10.0 mi WNW 3.5 mph - N/A   Scattered Clouds
8:53 PM 80.1 °F 83.2 °F 70.0 °F 71% 30.04 in 10.0 mi Calm Calm - N/A   Scattered Clouds
9:53 PM 77.0 °F - 69.1 °F 76% 30.05 in 10.0 mi WNW 5.8 mph - N/A   Partly Cloudy
10:53 PM 77.0 °F - 69.1 °F 76% 30.07 in 10.0 mi Calm Calm - N/A   Partly Cloudy
11:53 PM 75.9 °F - 69.1 °F 79% 30.07 in 10.0 mi Calm Calm - N/A   Partly Cloudy